Station Historical Data
Daily Summary for June 19, 2017 Units:  English    Metric   Both
« Previous Day
Next Day »
Daily Weekly Monthly Yearly Custom
  High: Low: Average:
Temperature: 78.8 °F 66.6 °F 71.6 °F
Dew Point: 66.3 °F 58.8 °F 62.5 °F
Humidity: 92% 52% 74%
Wind Speed: 14.0mph 0.0mph 4.3mph
Wind Gust: 22.0mph - -
Wind- - SW
Pressure: 29.78 in 29.65 in -
Precipitation: 0.00 in    
Historical Graphs
 
 
Tabular Data for June 19, 2017
Time Temperature Dew Point Pressure Wind Wind Speed Wind Gust Humidity Rainfall Rate (Hourly)
00:04 70.2 °F 66.1 °F 29.65 in West 3.0 mph 6.0 mph 87% 0.00 in
00:09 70.1 °F 66.0 °F 29.66 in West 2.0 mph 4.0 mph 87% 0.00 in
00:14 70.0 °F 66.3 °F 29.66 in WSW 3.0 mph 6.0 mph 88% 0.00 in
00:19 70.0 °F 66.0 °F 29.66 in WNW 3.0 mph 8.0 mph 87% 0.00 in
00:29 69.9 °F 66.2 °F 29.66 in West 3.0 mph 7.0 mph 88% 0.00 in
00:34 69.8 °F 66.1 °F 29.67 in West 1.0 mph 8.0 mph 88% 0.00 in
00:39 69.7 °F 66.0 °F 29.67 in WSW 1.0 mph 6.0 mph 88% 0.00 in
00:44 69.7 °F 66.0 °F 29.66 in WSW 2.0 mph 4.0 mph 88% 0.00 in
00:49 69.6 °F 65.9 °F 29.67 in Calm   5.0 mph 88% 0.00 in
00:54 69.6 °F 65.9 °F 29.67 in WSW 3.0 mph 3.0 mph 88% 0.00 in
00:59 69.5 °F 65.8 °F 29.67 in WSW 1.0 mph 3.0 mph 88% 0.00 in
01:04 69.5 °F 65.8 °F 29.67 in SW 1.0 mph 3.0 mph 88% 0.00 in
01:09 69.5 °F 66.1 °F 29.67 in SW 1.0 mph 4.0 mph 89% 0.00 in
01:14 69.4 °F 66.0 °F 29.66 in SW 1.0 mph 4.0 mph 89% 0.00 in
01:19 69.4 °F 66.0 °F 29.67 in SW 2.0 mph 5.0 mph 89% 0.00 in
01:24 69.5 °F 66.1 °F 29.67 in SSW 3.0 mph 5.0 mph 89% 0.00 in
01:29 69.5 °F 66.1 °F 29.68 in SW 2.0 mph 5.0 mph 89% 0.00 in
01:34 69.5 °F 65.8 °F 29.68 in SW 2.0 mph 5.0 mph 88% 0.00 in
01:39 69.6 °F 65.9 °F 29.68 in WSW 1.0 mph 6.0 mph 88% 0.00 in
01:40 69.6 °F 65.9 °F 29.68 in SW 2.0 mph 6.0 mph 88% 0.00 in
01:44 69.7 °F 66.0 °F 29.68 in WSW 3.0 mph 6.0 mph 88% 0.00 in
01:49 69.6 °F 65.9 °F 29.68 in SW 4.0 mph 5.0 mph 88% 0.00 in
01:54 69.6 °F 65.9 °F 29.68 in SW 3.0 mph 6.0 mph 88% 0.00 in
01:59 69.5 °F 65.8 °F 29.67 in SW 2.0 mph 6.0 mph 88% 0.00 in
02:04 69.5 °F 65.8 °F 29.67 in SW 2.0 mph 6.0 mph 88% 0.00 in
02:09 69.5 °F 65.8 °F 29.67 in WSW 1.0 mph 3.0 mph 88% 0.00 in
02:14 69.5 °F 65.8 °F 29.68 in WSW 1.0 mph 3.0 mph 88% 0.00 in
02:19 69.5 °F 65.8 °F 29.67 in SW 2.0 mph 6.0 mph 88% 0.00 in
02:24 69.5 °F 65.8 °F 29.67 in SW 2.0 mph 6.0 mph 88% 0.00 in
02:29 69.5 °F 65.8 °F 29.67 in SSW 3.0 mph 6.0 mph 88% 0.00 in
02:34 69.5 °F 65.8 °F 29.67 in SW 2.0 mph 6.0 mph 88% 0.00 in
02:39 69.5 °F 65.8 °F 29.67 in SW 2.0 mph 7.0 mph 88% 0.00 in
02:44 69.5 °F 65.8 °F 29.67 in SW 4.0 mph 7.0 mph 88% 0.00 in
02:49 69.5 °F 65.8 °F 29.67 in SW 1.0 mph 6.0 mph 88% 0.00 in
02:54 69.5 °F 65.8 °F 29.67 in WSW 3.0 mph 4.0 mph 88% 0.00 in
02:59 69.5 °F 66.1 °F 29.67 in SW 2.0 mph 5.0 mph 89% 0.00 in
03:04 69.5 °F 66.1 °F 29.68 in SW 2.0 mph 5.0 mph 89% 0.00 in
03:09 69.5 °F 66.1 °F 29.67 in SW 2.0 mph 5.0 mph 89% 0.00 in
03:14 69.4 °F 66.0 °F 29.67 in SW 2.0 mph 7.0 mph 89% 0.00 in
03:19 69.5 °F 66.1 °F 29.67 in SSW 3.0 mph 8.0 mph 89% 0.00 in
03:24 69.5 °F 66.1 °F 29.68 in WSW 2.0 mph 5.0 mph 89% 0.00 in
03:29 69.5 °F 66.1 °F 29.67 in SW 3.0 mph 6.0 mph 89% 0.00 in
03:34 69.5 °F 66.1 °F 29.68 in SW 4.0 mph 8.0 mph 89% 0.00 in
03:39 69.5 °F 66.1 °F 29.67 in SW 3.0 mph 8.0 mph 89% 0.00 in
03:44 69.5 °F 66.1 °F 29.68 in SW 3.0 mph 8.0 mph 89% 0.00 in
03:49 69.5 °F 66.1 °F 29.68 in SW 3.0 mph 7.0 mph 89% 0.00 in
03:54 69.5 °F 66.1 °F 29.68 in WSW 2.0 mph 6.0 mph 89% 0.00 in
03:59 69.4 °F 66.0 °F 29.68 in WSW 2.0 mph 4.0 mph 89% 0.00 in
04:04 69.3 °F 65.9 °F 29.68 in WSW 2.0 mph 4.0 mph 89% 0.00 in
04:09 69.2 °F 65.8 °F 29.68 in SW 2.0 mph 4.0 mph 89% 0.00 in
04:14 69.2 °F 65.8 °F 29.68 in South 2.0 mph 6.0 mph 89% 0.00 in
04:19 69.0 °F 65.9 °F 29.68 in SW 3.0 mph 5.0 mph 90% 0.00 in
04:24 68.9 °F 65.8 °F 29.68 in SW 2.0 mph 4.0 mph 90% 0.00 in
04:29 68.7 °F 65.6 °F 29.68 in SW 1.0 mph 5.0 mph 90% 0.00 in
04:34 68.7 °F 65.6 °F 29.69 in SW 2.0 mph 6.0 mph 90% 0.00 in
04:39 68.7 °F 65.6 °F 29.69 in SW 3.0 mph 6.0 mph 90% 0.00 in
04:44 68.7 °F 65.6 °F 29.69 in SW 3.0 mph 6.0 mph 90% 0.00 in
04:49 68.6 °F 65.5 °F 29.69 in SW 2.0 mph 6.0 mph 90% 0.00 in
04:54 68.4 °F 65.4 °F 29.70 in WSW 2.0 mph 5.0 mph 90% 0.00 in
04:59 68.3 °F 65.6 °F 29.70 in SW 3.0 mph 4.0 mph 91% 0.00 in
05:04 68.2 °F 65.5 °F 29.70 in WSW 2.0 mph 5.0 mph 91% 0.00 in
05:09 68.0 °F 65.3 °F 29.69 in Calm   3.0 mph 91% 0.00 in
05:14 67.9 °F 65.2 °F 29.70 in WSW 1.0 mph 4.0 mph 91% 0.00 in
05:19 67.7 °F 65.0 °F 29.70 in Calm   3.0 mph 91% 0.00 in
05:24 67.7 °F 65.0 °F 29.71 in SSW 2.0 mph 3.0 mph 91% 0.00 in
05:29 67.5 °F 64.8 °F 29.70 in Calm   3.0 mph 91% 0.00 in
05:34 67.4 °F 64.7 °F 29.71 in SSW 1.0 mph 3.0 mph 91% 0.00 in
05:39 67.3 °F 64.9 °F 29.71 in SW 1.0 mph 4.0 mph 92% 0.00 in
05:44 67.4 °F 65.0 °F 29.72 in SW 1.0 mph 5.0 mph 92% 0.00 in
05:49 67.4 °F 65.0 °F 29.72 in SW 2.0 mph 5.0 mph 92% 0.00 in
05:54 67.4 °F 65.0 °F 29.72 in SW 1.0 mph 3.0 mph 92% 0.00 in
05:59 67.4 °F 65.0 °F 29.71 in SSW 2.0 mph 4.0 mph 92% 0.00 in
06:04 67.4 °F 65.0 °F 29.72 in Calm   4.0 mph 92% 0.00 in
06:09 67.4 °F 65.0 °F 29.72 in Calm   3.0 mph 92% 0.00 in
06:14 67.4 °F 65.0 °F 29.72 in SW 1.0 mph 3.0 mph 92% 0.00 in
06:19 67.4 °F 65.0 °F 29.72 in Calm   3.0 mph 92% 0.00 in
06:24 67.4 °F 65.0 °F 29.73 in SW 1.0 mph 4.0 mph 92% 0.00 in
06:29 67.5 °F 65.1 °F 29.73 in Calm   4.0 mph 92% 0.00 in
06:34 67.4 °F 64.7 °F 29.72 in WSW 1.0 mph 4.0 mph 91% 0.00 in
06:39 67.4 °F 64.7 °F 29.72 in Calm     91% 0.00 in
06:44 67.4 °F 64.7 °F 29.73 in Calm     91% 0.00 in
06:49 67.4 °F 64.7 °F 29.72 in Calm     91% 0.00 in
06:54 67.6 °F 64.6 °F 29.72 in Calm     90% 0.00 in
06:59 67.7 °F 64.3 °F 29.72 in Calm     89% 0.00 in
07:04 67.9 °F 64.2 °F 29.72 in Calm     88% 0.00 in
07:09 68.1 °F 64.4 °F 29.73 in Calm     88% 0.00 in
07:14 68.3 °F 64.3 °F 29.74 in SW 1.0 mph 4.0 mph 87% 0.00 in
07:19 68.5 °F 64.5 °F 29.74 in Calm   4.0 mph 87% 0.00 in
07:24 68.6 °F 64.2 °F 29.74 in SW 1.0 mph 4.0 mph 86% 0.00 in
07:29 68.7 °F 64.3 °F 29.74 in SSW 2.0 mph 4.0 mph 86% 0.00 in
07:34 68.8 °F 64.1 °F 29.73 in SSW 2.0 mph 5.0 mph 85% 0.00 in
07:39 68.8 °F 64.1 °F 29.73 in SSW 1.0 mph 5.0 mph 85% 0.00 in
07:44 68.8 °F 64.1 °F 29.73 in Calm   4.0 mph 85% 0.00 in
07:49 68.9 °F 64.2 °F 29.73 in South 3.0 mph 3.0 mph 85% 0.00 in
07:54 68.9 °F 64.2 °F 29.74 in SSW 1.0 mph 3.0 mph 85% 0.00 in
07:59 69.0 °F 64.0 °F 29.74 in SW 4.0 mph 4.0 mph 84% 0.00 in
08:04 69.1 °F 64.1 °F 29.74 in SW 2.0 mph 4.0 mph 84% 0.00 in
08:09 69.4 °F 63.7 °F 29.74 in WSW 2.0 mph 5.0 mph 82% 0.00 in
08:14 69.8 °F 64.1 °F 29.74 in WSW 2.0 mph 5.0 mph 82% 0.00 in
08:19 69.6 °F 63.2 °F 29.74 in WSW 2.0 mph 6.0 mph 80% 0.00 in
08:24 70.3 °F 64.2 °F 29.74 in WSW 4.0 mph 7.0 mph 81% 0.00 in
08:29 71.0 °F 64.9 °F 29.74 in WSW 3.0 mph 7.0 mph 81% 0.00 in
08:34 71.2 °F 64.7 °F 29.74 in WSW 4.0 mph 8.0 mph 80% 0.00 in
08:39 71.5 °F 64.3 °F 29.74 in WSW 5.0 mph 7.0 mph 78% 0.00 in
08:44 71.9 °F 64.3 °F 29.75 in WSW 3.0 mph 9.0 mph 77% 0.00 in
08:49 72.1 °F 64.5 °F 29.75 in WSW 4.0 mph 9.0 mph 77% 0.00 in
08:54 72.7 °F 64.7 °F 29.75 in SW 4.0 mph 8.0 mph 76% 0.00 in
08:59 72.7 °F 63.9 °F 29.75 in SW 4.0 mph 10.0 mph 74% 0.00 in
09:04 72.6 °F 63.1 °F 29.75 in SW 5.0 mph 10.0 mph 72% 0.00 in
09:09 72.8 °F 63.2 °F 29.74 in WSW 4.0 mph 11.0 mph 72% 0.00 in
09:14 72.9 °F 62.5 °F 29.75 in SW 7.0 mph 11.0 mph 70% 0.00 in
09:19 73.0 °F 62.6 °F 29.74 in South 6.0 mph 9.0 mph 70% 0.00 in
09:24 72.5 °F 62.2 °F 29.74 in SW 5.0 mph 9.0 mph 70% 0.00 in
09:29 72.9 °F 62.9 °F 29.75 in SW 5.0 mph 9.0 mph 71% 0.00 in
09:34 73.4 °F 61.8 °F 29.74 in SW 5.0 mph 9.0 mph 67% 0.00 in
09:39 73.8 °F 62.2 °F 29.74 in SW 5.0 mph 9.0 mph 67% 0.00 in
09:44 74.4 °F 62.3 °F 29.74 in WSW 3.0 mph 10.0 mph 66% 0.00 in
09:49 74.5 °F 62.0 °F 29.75 in SW 7.0 mph 8.0 mph 65% 0.00 in
09:54 74.2 °F 61.7 °F 29.75 in SW 5.0 mph 12.0 mph 65% 0.00 in
09:59 73.7 °F 61.6 °F 29.75 in SSW 3.0 mph 10.0 mph 66% 0.00 in
10:04 74.0 °F 61.9 °F 29.75 in West 5.0 mph 12.0 mph 66% 0.00 in
10:09 74.0 °F 61.5 °F 29.75 in SW 7.0 mph 11.0 mph 65% 0.00 in
10:14 73.5 °F 61.0 °F 29.75 in West 5.0 mph 9.0 mph 65% 0.00 in
10:19 73.1 °F 61.9 °F 29.75 in SSW 7.0 mph 11.0 mph 68% 0.00 in
10:24 73.1 °F 62.3 °F 29.75 in SW 5.0 mph 11.0 mph 69% 0.00 in
10:29 73.8 °F 62.2 °F 29.75 in SW 5.0 mph 11.0 mph 67% 0.00 in
10:34 74.9 °F 62.3 °F 29.75 in SW 4.0 mph 10.0 mph 65% 0.00 in
10:39 75.0 °F 62.0 °F 29.75 in WSW 4.0 mph 8.0 mph 64% 0.00 in
10:44 74.1 °F 60.2 °F 29.75 in West 5.0 mph 11.0 mph 62% 0.00 in
10:49 73.7 °F 61.2 °F 29.75 in West 4.0 mph 11.0 mph 65% 0.00 in
10:54 74.4 °F 61.9 °F 29.75 in WSW 5.0 mph 11.0 mph 65% 0.00 in
10:59 74.4 °F 61.9 °F 29.75 in WSW 5.0 mph 13.0 mph 65% 0.00 in
11:04 74.3 °F 61.8 °F 29.75 in West 4.0 mph 13.0 mph 65% 0.00 in
11:09 74.5 °F 61.1 °F 29.75 in SSW 6.0 mph 9.0 mph 63% 0.00 in
11:14 74.5 °F 61.1 °F 29.75 in SW 5.0 mph 9.0 mph 63% 0.00 in
11:19 75.4 °F 62.4 °F 29.75 in SW 10.0 mph 13.0 mph 64% 0.00 in
11:24 75.7 °F 62.2 °F 29.75 in WSW 6.0 mph 13.0 mph 63% 0.00 in
11:29 76.3 °F 62.3 °F 29.75 in SW 5.0 mph 10.0 mph 62% 0.00 in
11:34 76.1 °F 60.2 °F 29.75 in SW 6.0 mph 10.0 mph 58% 0.00 in
11:39 76.0 °F 61.1 °F 29.75 in West 5.0 mph 12.0 mph 60% 0.00 in
11:44 76.1 °F 59.8 °F 29.75 in SW 5.0 mph 10.0 mph 57% 0.00 in
11:49 76.6 °F 60.7 °F 29.75 in SW 6.0 mph 11.0 mph 58% 0.00 in
11:54 76.6 °F 62.6 °F 29.75 in SW 5.0 mph 11.0 mph 62% 0.00 in
11:59 77.2 °F 61.3 °F 29.75 in SW 5.0 mph 11.0 mph 58% 0.00 in
12:04 76.6 °F 60.2 °F 29.75 in SW 6.0 mph 9.0 mph 57% 0.00 in
12:09 76.6 °F 59.2 °F 29.75 in SW 7.0 mph 17.0 mph 55% 0.00 in
12:14 75.7 °F 59.9 °F 29.75 in WNW 6.0 mph 11.0 mph 58% 0.00 in
12:19 75.3 °F 59.5 °F 29.75 in WSW 7.0 mph 11.0 mph 58% 0.00 in
12:24 75.7 °F 59.9 °F 29.76 in WSW 7.0 mph 12.0 mph 58% 0.00 in
12:29 75.7 °F 59.4 °F 29.76 in SW 6.0 mph 11.0 mph 57% 0.00 in
12:34 76.5 °F 60.1 °F 29.76 in SSW 7.0 mph 13.0 mph 57% 0.00 in
12:39 77.2 °F 60.8 °F 29.76 in WSW 2.0 mph 10.0 mph 57% 0.00 in
12:44 76.7 °F 59.8 °F 29.75 in SSW 5.0 mph 12.0 mph 56% 0.00 in
12:49 77.4 °F 60.0 °F 29.75 in SW 6.0 mph 12.0 mph 55% 0.00 in
12:54 77.8 °F 59.3 °F 29.75 in WSW 5.0 mph 10.0 mph 53% 0.00 in
12:59 78.2 °F 60.7 °F 29.75 in West 5.0 mph 12.0 mph 55% 0.00 in
13:04 77.2 °F 59.3 °F 29.75 in WSW 6.0 mph 13.0 mph 54% 0.00 in
13:09 77.7 °F 59.2 °F 29.75 in WSW 6.0 mph 13.0 mph 53% 0.00 in
13:14 77.5 °F 59.5 °F 29.75 in SSW 8.0 mph 12.0 mph 54% 0.00 in
13:19 76.7 °F 59.3 °F 29.75 in WSW 7.0 mph 16.0 mph 55% 0.00 in
13:24 77.1 °F 59.7 °F 29.74 in West 6.0 mph 13.0 mph 55% 0.00 in
13:29 77.3 °F 59.9 °F 29.74 in West 8.0 mph 11.0 mph 55% 0.00 in
13:34 77.2 °F 59.3 °F 29.74 in SSW 4.0 mph 10.0 mph 54% 0.00 in
13:39 77.1 °F 59.2 °F 29.74 in West 4.0 mph 13.0 mph 54% 0.00 in
13:44 77.4 °F 61.0 °F 29.74 in WSW 6.0 mph 13.0 mph 57% 0.00 in
13:49 77.6 °F 60.2 °F 29.73 in WSW 6.0 mph 13.0 mph 55% 0.00 in
13:54 77.7 °F 60.2 °F 29.74 in WSW 7.0 mph 13.0 mph 55% 0.00 in
13:59 78.2 °F 63.6 °F 29.73 in WSW 6.0 mph 11.0 mph 61% 0.00 in
14:04 78.5 °F 61.0 °F 29.73 in WSW 2.0 mph 9.0 mph 55% 0.00 in
14:09 78.8 °F 60.7 °F 29.73 in WNW 5.0 mph 11.0 mph 54% 0.00 in
14:14 78.0 °F 58.9 °F 29.73 in WSW 4.0 mph 10.0 mph 52% 0.00 in
14:19 77.5 °F 60.6 °F 29.73 in WSW 6.0 mph 13.0 mph 56% 0.00 in
14:24 77.6 °F 61.2 °F 29.73 in SW 6.0 mph 14.0 mph 57% 0.00 in
14:29 78.0 °F 61.5 °F 29.72 in West 4.0 mph 13.0 mph 57% 0.00 in
14:34 77.9 °F 59.9 °F 29.72 in West 8.0 mph 12.0 mph 54% 0.00 in
14:39 77.8 °F 60.8 °F 29.72 in SSW 6.0 mph 13.0 mph 56% 0.00 in
14:44 78.7 °F 63.2 °F 29.72 in WSW 6.0 mph 13.0 mph 59% 0.00 in
14:49 78.7 °F 62.2 °F 29.72 in WSW 6.0 mph 11.0 mph 57% 0.00 in
14:54 76.7 °F 59.3 °F 29.71 in West 6.0 mph 16.0 mph 55% 0.00 in
14:59 75.7 °F 59.9 °F 29.72 in WSW 7.0 mph 16.0 mph 58% 0.00 in
15:04 75.4 °F 60.5 °F 29.72 in WSW 8.0 mph 11.0 mph 60% 0.00 in
15:09 75.5 °F 60.2 °F 29.72 in WSW 9.0 mph 12.0 mph 59% 0.00 in
15:14 74.9 °F 59.1 °F 29.72 in WSW 6.0 mph 13.0 mph 58% 0.00 in
15:19 74.2 °F 60.3 °F 29.72 in WSW 6.0 mph 13.0 mph 62% 0.00 in
15:24 73.7 °F 59.9 °F 29.72 in WSW 6.0 mph 13.0 mph 62% 0.00 in
15:29 73.2 °F 59.8 °F 29.72 in SW 7.0 mph 15.0 mph 63% 0.00 in
15:34 72.8 °F 60.3 °F 29.72 in SW 7.0 mph 15.0 mph 65% 0.00 in
15:39 72.6 °F 60.2 °F 29.72 in SW 6.0 mph 12.0 mph 65% 0.00 in
15:44 72.5 °F 60.5 °F 29.72 in WSW 5.0 mph 11.0 mph 66% 0.00 in
15:49 72.4 °F 60.0 °F 29.72 in WSW 3.0 mph 10.0 mph 65% 0.00 in
15:54 72.3 °F 60.7 °F 29.71 in West 1.0 mph 8.0 mph 67% 0.00 in
15:59 72.0 °F 60.4 °F 29.71 in SSW 7.0 mph 11.0 mph 67% 0.00 in
16:04 72.0 °F 60.4 °F 29.71 in WSW 3.0 mph 10.0 mph 67% 0.00 in
16:09 72.0 °F 60.4 °F 29.71 in WSW 7.0 mph 11.0 mph 67% 0.00 in
16:14 71.7 °F 60.2 °F 29.72 in SW 6.0 mph 14.0 mph 67% 0.00 in
16:19 71.7 °F 60.6 °F 29.72 in SW 6.0 mph 14.0 mph 68% 0.00 in
16:24 71.7 °F 60.6 °F 29.72 in SW 6.0 mph 16.0 mph 68% 0.00 in
16:29 71.7 °F 61.0 °F 29.72 in SW 7.0 mph 16.0 mph 69% 0.00 in
16:34 72.2 °F 61.5 °F 29.72 in SW 7.0 mph 14.0 mph 69% 0.00 in
16:39 72.2 °F 61.0 °F 29.72 in SW 6.0 mph 15.0 mph 68% 0.00 in
16:44 72.5 °F 61.3 °F 29.72 in SW 7.0 mph 15.0 mph 68% 0.00 in
16:49 73.0 °F 61.0 °F 29.72 in SW 6.0 mph 14.0 mph 66% 0.00 in
16:54 73.9 °F 61.0 °F 29.71 in SW 7.0 mph 15.0 mph 64% 0.00 in
16:59 74.3 °F 61.8 °F 29.71 in West 13.0 mph 14.0 mph 65% 0.00 in
17:04 74.0 °F 61.5 °F 29.71 in WSW 8.0 mph 15.0 mph 65% 0.00 in
17:09 74.3 °F 62.2 °F 29.71 in WSW 5.0 mph 14.0 mph 66% 0.00 in
17:14 74.9 °F 61.0 °F 29.71 in WSW 6.0 mph 14.0 mph 62% 0.00 in
17:19 75.3 °F 61.4 °F 29.71 in WSW 6.0 mph 13.0 mph 62% 0.00 in
17:24 75.3 °F 61.4 °F 29.71 in WSW 5.0 mph 15.0 mph 62% 0.00 in
17:29 75.1 °F 61.6 °F 29.71 in WSW 3.0 mph 13.0 mph 63% 0.00 in
17:34 75.3 °F 61.4 °F 29.72 in SSW 5.0 mph 12.0 mph 62% 0.00 in
17:39 74.7 °F 60.4 °F 29.72 in West 5.0 mph 20.0 mph 61% 0.00 in
17:44 74.7 °F 60.8 °F 29.72 in WSW 8.0 mph 20.0 mph 62% 0.00 in
17:49 74.3 °F 60.9 °F 29.72 in WSW 8.0 mph 16.0 mph 63% 0.00 in
17:54 73.5 °F 61.0 °F 29.72 in WSW 8.0 mph 16.0 mph 65% 0.00 in
17:59 73.0 °F 61.0 °F 29.72 in WSW 8.0 mph 15.0 mph 66% 0.00 in
18:04 73.4 °F 60.9 °F 29.71 in WSW 8.0 mph 16.0 mph 65% 0.00 in
18:09 73.9 °F 60.5 °F 29.72 in SW 10.0 mph 13.0 mph 63% 0.00 in
18:14 73.9 °F 60.1 °F 29.71 in West 5.0 mph 17.0 mph 62% 0.00 in
18:19 73.9 °F 59.1 °F 29.71 in SW 10.0 mph 17.0 mph 60% 0.00 in
18:24 73.9 °F 59.6 °F 29.71 in West 7.0 mph 15.0 mph 61% 0.00 in
18:29 74.0 °F 59.7 °F 29.72 in SW 7.0 mph 17.0 mph 61% 0.00 in
18:34 73.9 °F 60.1 °F 29.72 in WSW 8.0 mph 22.0 mph 62% 0.00 in
18:39 73.6 °F 60.2 °F 29.72 in WNW 4.0 mph 15.0 mph 63% 0.00 in
18:44 73.4 °F 60.5 °F 29.72 in WSW 7.0 mph 15.0 mph 64% 0.00 in
18:49 73.6 °F 61.5 °F 29.73 in WSW 7.0 mph 14.0 mph 66% 0.00 in
18:54 73.6 °F 60.7 °F 29.73 in WSW 7.0 mph 16.0 mph 64% 0.00 in
18:59 73.5 °F 60.6 °F 29.73 in WSW 7.0 mph 16.0 mph 64% 0.00 in
19:04 73.4 °F 60.0 °F 29.73 in WSW 8.0 mph 15.0 mph 63% 0.00 in
19:09 72.9 °F 60.0 °F 29.72 in SW 8.0 mph 16.0 mph 64% 0.00 in
19:14 72.6 °F 60.2 °F 29.73 in SW 8.0 mph 16.0 mph 65% 0.00 in
19:19 72.2 °F 60.2 °F 29.73 in SSW 7.0 mph 16.0 mph 66% 0.00 in
19:24 71.7 °F 60.2 °F 29.73 in SW 9.0 mph 13.0 mph 67% 0.00 in
19:29 71.5 °F 60.4 °F 29.73 in WSW 6.0 mph 14.0 mph 68% 0.00 in
19:34 71.5 °F 60.4 °F 29.73 in WSW 7.0 mph 16.0 mph 68% 0.00 in
19:39 71.4 °F 60.3 °F 29.73 in SW 6.0 mph 17.0 mph 68% 0.00 in
19:44 71.4 °F 60.3 °F 29.74 in WSW 7.0 mph 17.0 mph 68% 0.00 in
19:49 71.5 °F 60.0 °F 29.74 in SW 6.0 mph 13.0 mph 67% 0.00 in
19:54 71.6 °F 59.6 °F 29.74 in SW 6.0 mph 17.0 mph 66% 0.00 in
19:59 71.7 °F 59.7 °F 29.74 in WSW 8.0 mph 18.0 mph 66% 0.00 in
20:04 71.6 °F 59.6 °F 29.74 in WSW 14.0 mph 15.0 mph 66% 0.00 in
20:09 71.4 °F 59.4 °F 29.74 in West 4.0 mph 16.0 mph 66% 0.00 in
20:14 71.1 °F 59.6 °F 29.74 in WSW 7.0 mph 16.0 mph 67% 0.00 in
20:19 70.8 °F 59.7 °F 29.74 in WSW 7.0 mph 12.0 mph 68% 0.00 in
20:24 70.6 °F 59.9 °F 29.74 in WSW 6.0 mph 12.0 mph 69% 0.00 in
20:29 70.4 °F 60.5 °F 29.74 in WSW 6.0 mph 12.0 mph 71% 0.00 in
20:34 70.1 °F 60.7 °F 29.74 in WSW 5.0 mph 11.0 mph 72% 0.00 in
20:39 69.8 °F 60.8 °F 29.73 in SW 5.0 mph 8.0 mph 73% 0.00 in
20:44 69.6 °F 60.9 °F 29.73 in WSW 5.0 mph 8.0 mph 74% 0.00 in
20:49 69.4 °F 61.1 °F 29.73 in SW 1.0 mph 7.0 mph 75% 0.00 in
20:54 69.3 °F 61.0 °F 29.73 in SW 2.0 mph 9.0 mph 75% 0.00 in
20:59 69.1 °F 61.2 °F 29.73 in SW 3.0 mph 5.0 mph 76% 0.00 in
21:04 68.8 °F 61.3 °F 29.74 in WNW 5.0 mph 6.0 mph 77% 0.00 in
21:09 68.7 °F 61.2 °F 29.74 in South 5.0 mph 6.0 mph 77% 0.00 in
21:14 68.7 °F 61.2 °F 29.74 in SW 3.0 mph 6.0 mph 77% 0.00 in
21:19 68.6 °F 61.5 °F 29.74 in SW 3.0 mph 8.0 mph 78% 0.00 in
21:24 68.5 °F 61.4 °F 29.74 in SW 3.0 mph 8.0 mph 78% 0.00 in
21:29 68.3 °F 61.5 °F 29.74 in SW 3.0 mph 7.0 mph 79% 0.00 in
21:34 68.1 °F 61.3 °F 29.75 in SW 2.0 mph 4.0 mph 79% 0.00 in
21:39 68.0 °F 61.6 °F 29.75 in SW 2.0 mph 4.0 mph 80% 0.00 in
21:44 67.9 °F 61.9 °F 29.75 in SSW 3.0 mph 6.0 mph 81% 0.00 in
21:49 67.9 °F 61.9 °F 29.75 in SW 2.0 mph 7.0 mph 81% 0.00 in
21:54 67.9 °F 61.9 °F 29.75 in SW 3.0 mph 7.0 mph 81% 0.00 in
21:59 68.0 °F 61.9 °F 29.76 in SW 3.0 mph 10.0 mph 81% 0.00 in
22:04 68.1 °F 62.0 °F 29.75 in SSW 6.0 mph 12.0 mph 81% 0.00 in
22:09 68.2 °F 62.1 °F 29.75 in SSW 2.0 mph 9.0 mph 81% 0.00 in
22:14 68.1 °F 62.0 °F 29.76 in SW 6.0 mph 8.0 mph 81% 0.00 in
22:19 68.2 °F 61.8 °F 29.76 in SW 4.0 mph 12.0 mph 80% 0.00 in
22:24 68.3 °F 61.9 °F 29.76 in SW 5.0 mph 12.0 mph 80% 0.00 in
22:29 68.5 °F 61.7 °F 29.76 in SW 4.0 mph 10.0 mph 79% 0.00 in
22:34 68.7 °F 61.9 °F 29.76 in SW 6.0 mph 11.0 mph 79% 0.00 in
22:39 68.9 °F 62.1 °F 29.76 in SW 5.0 mph 15.0 mph 79% 0.00 in
22:44 68.8 °F 61.7 °F 29.76 in WSW 5.0 mph 12.0 mph 78% 0.00 in
22:49 68.7 °F 61.6 °F 29.76 in SW 6.0 mph 12.0 mph 78% 0.00 in
22:54 68.5 °F 61.0 °F 29.76 in SW 6.0 mph 11.0 mph 77% 0.00 in
22:59 68.4 °F 60.9 °F 29.76 in SW 6.0 mph 12.0 mph 77% 0.00 in
23:04 68.3 °F 60.8 °F 29.76 in SW 5.0 mph 12.0 mph 77% 0.00 in
23:09 68.2 °F 60.3 °F 29.77 in SW 5.0 mph 16.0 mph 76% 0.00 in
23:14 68.1 °F 59.9 °F 29.77 in SW 4.0 mph 11.0 mph 75% 0.00 in
23:19 68.1 °F 59.9 °F 29.76 in SW 5.0 mph 11.0 mph 75% 0.00 in
23:24 67.9 °F 59.3 °F 29.76 in SW 4.0 mph 9.0 mph 74% 0.00 in
23:29 67.7 °F 59.1 °F 29.76 in West 6.0 mph 16.0 mph 74% 0.00 in
23:34 67.3 °F 59.1 °F 29.77 in WSW 4.0 mph 13.0 mph 75% 0.00 in
23:39 67.1 °F 58.9 °F 29.77 in SW 5.0 mph 13.0 mph 75% 0.00 in
23:44 66.8 °F 59.0 °F 29.77 in WSW 10.0 mph 12.0 mph 76% 0.00 in
23:49 66.7 °F 58.9 °F 29.78 in SW 6.0 mph 15.0 mph 76% 0.00 in
23:54 66.6 °F 58.8 °F 29.78 in SW 7.0 mph 17.0 mph 76% 0.00 in
23:59 66.6 °F 58.8 °F 29.78 in SW 6.0 mph 17.0 mph 76% 0.00 in
Buffalo, New York, USA
Compliments of Weather Underground - 2.5 mb